RH
21 22 20 16 16 16 13 8 5 6 5 17 80 73 48 82 100 100 99 99 100 100 100 100 99 99 95 95 100 99 100 98 98 96 81 60 48 42 40 35 32 29 26 28 40 53 37 19 19 20 17 20 22 21
3 3 3 3 3 3 3 2 2 2 2 3 5 21 18 33 96 100 100 100 98 99 100 100 100 99 89 100 100 100 100 100 99 93 81 80 57 53 51 46 50 41 41 32 32 28 25 34 38 38 35 32 31 30
3 2 2 3 3 3 3 3 3 3 3 2 3 3 5 11 24 82 100 100 100 99 97 99 100 100 97 85 98 100 100 99 100 99 99 98 96 97 83 76 76 75 69 46 47 47 44 47 61 67 50 42 35 29
3 3 3 3 2 2 3 3 3 3 3 3 3 3 3 3 5 17 40 98 100 98 97 94 91 92 99 99 97 99 100 100 100 99 99 99 99 99 95 97 96 86 82 72 69 66 66 79 78 85 61 48 37 35
4 4 3 3 3 3 3 3 3 3 4 4 4 4 4 4 4 4 5 49 100 100 97 79 84 89 100 97 99 100 100 98 98 99 98 98 99 100 98 98 78 73 71 78 68 58 79 88 84 95 96 86 76 65
5 5 4 4 4 4 4 4 4 4 4 5 4 4 4 4 4 4 3 4 13 60 98 95 67 70 76 89 81 73 89 100 99 99 98 98 98 100 98 96 52 56 76 77 65 60 87 85 73 83 99 100 78 67
6 6 6 5 5 5 5 5 5 5 5 6 6 5 5 6 6 5 7 8 77 100 98 96 83 60 51 61 81 95 100 100 100 99 98 98 100 100 98 96 43 58 74 82 76 68 73 80 78 72 73 76 89 67
8 8 8 8 7 7 6 7 7 8 8 9 9 9 8 8 7 5 4 5 31 87 98 96 94 77 76 93 99 91 89 100 98 98 98 98 99 99 96 71 52 53 54 57 54 63 69 82 77 70 69 65 64 66
16 12 11 10 11 14 16 17 19 24 24 23 21 18 16 19 13 8 7 6 14 38 69 84 95 95 81 89 85 79 99 100 100 98 95 100 97 94 60 46 34 37 43 44 51 68 64 62 60 71 70 62 60 56
60 49 41 38 38 39 39 45 87 90 90 81 65 62 53 37 44 68 46 50 53 56 100 98 97 97 95 87 87 94 99 96 97 94 94 100 92 58 34 30 34 35 48 52 60 63 59 53 63 69 62 56 54 51
100 94 89 84 85 85 82 80 83 94 96 95 90 74 54 71 82 86 80 68 94 100 73 29 20 22 30 43 75 97 96 96 95 82 87 94 81 30 33 38 47 54 57 58 58 59 63 67 65 61 60 57 58 56
93 92 92 88 83 83 90 86 86 97 95 96 92 97 94 97 98 94 91 68 88 85 65 29 35 61 79 86 100 94 90 92 92 94 98 88 40 38 32 36 54 62 58 62 67 68 67 64 63 64 63 61 61 49
91 92 91 90 88 83 87 86 83 100 98 99 97 95 98 94 88 96 98 99 75 52 50 59 71 79 91 94 94 96 97 90 90 100 85 68 57 36 45 77 84 95 92 87 90 91 91 81 68 65 65 64 47 37
91 90 90 89 88 88 86 90 84 96 99 98 98 98 94 87 96 74 60 56 63 72 68 77 83 89 93 100 92 92 82 91 84 87 93 61 27 44 60 73 88 94 96 97 96 97 97 96 90 78 56 46 43 44
90 92 94 94 91 90 89 88 93 98 97 97 97 91 79 65 79 86 67 56 44 50 46 61 72 71 80 96 95 78 73 69 59 50 29 46 73 71 88 99 90 96 96 97 96 91 88 92 97 96 96 94 82 58
81 85 91 96 91 89 89 89 98 99 98 97 97 85 72 78 77 86 70 63 66 59 54 64 75 78 74 68 90 95 97 90 76 73 69 84 99 97 93 90 93 95 95 94 97 92 89 85 86 96 96 94 84 72
90 79 87 97 91 87 96 97 100 98 98 97 86 73 59 52 43 41 54 67 87 86 91 94 97 94 80 73 65 60 82 81 92 93 97 92 93 95 95 96 84 92 77 73 93 96 80 80 93 94 96 96 92 72
90 82 80 96 97 93 99 99 99 99 97 94 74 57 51 44 46 42 43 51 61 66 75 76 92 98 97 93 64 35 31 27 31 32 32 40 48 43 78 72 93 93 84 66 61 95 100 98 91 97 97 96 95 84
81 83 76 93 98 99 100 94 96 98 97 93 83 67 62 56 50 45 46 50 56 69 88 89 96 94 71 44 44 40 34 31 32 32 33 29 24 26 34 35 36 79 72 54 45 43 67 89 92 92 95 89 95 98
78 89 79 90 100 98 99 97 89 96 97 92 84 64 60 59 57 55 52 54 60 76 92 92 78 63 60 46 42 38 33 30 28 28 25 24 21 23 23 22 27 31 38 37 41 33 29 51 85 96 96 96 97 97
86 84 85 97 99 98 99 97 97 90 100 96 66 59 64 57 50 49 57 73 91 84 82 69 60 47 40 38 34 30 27 27 27 27 28 29 32 38 42 26 23 23 31 33 37 34 26 30 68 92 96 97 98 97
78 84 95 99 98 99 98 98 94 97 96 86 72 61 55 52 53 56 59 67 62 61 58 45 37 35 34 29 33 48 63 60 56 55 39 28 28 32 38 32 31 24 24 26 26 28 25 35 71 82 96 96 96 96
94 98 99 98 99 99 97 97 97 98 100 98 79 66 60 54 46 47 66 57 51 39 33 35 33 35 53 70 85 71 80 92 86 70 58 54 39 35 35 32 33 32 20 17 17 20 22 40 56 94 97 93 96 96
99 98 99 99 98 96 94 100 94 96 93 80 68 54 50 47 44 49 52 41 36 33 31 38 65 91 90 95 96 94 96 97 96 96 95 92 83 62 63 64 50 48 38 26 17 18 32 49 63 92 94 95 97 96
100 99 99 97 97 100 97 98 97 87 78 53 48 50 47 46 61 58 56 39 31 34 40 71 95 95 96 97 96 91 93 96 96 95 88 98 97 95 98 92 80 72 67 47 26 33 56 62 76 93 95 94 97 96
97 96 92 83 92 87 88 88 79 62 62 64 61 54 42 50 60 72 38 25 36 42 84 85 71 67 74 89 96 89 82 95 100 95 77 95 98 97 97 98 90 70 72 75 84 82 80 89 87 94 95 96 97 96
98 97 94 82 83 83 93 86 74 83 84 68 54 46 53 87 84 48 33 33 44 43 59 67 59 66 92 92 89 91 89 95 98 87 86 90 97 97 94 90 86 86 94 90 95 98 92 90 92 95 96 96 96 96
92 78 77 73 82 73 69 62 64 67 65 64 58 58 67 56 44 31 37 32 34 38 38 45 71 96 96 88 85 86 94 99 88 82 75 81 92 94 94 95 96 96 96 96 96 96 96 96 96 95 93 96 96 96
95 77 67 70 70 72 72 74 67 50 38 40 47 48 42 39 37 34 30 32 31 35 64 84 89 97 96 94 92 95 100 97 95 91 90 93 99 98 98 97 97 96 96 96 96 97 98 97 97 96 96 96 97 97
69 60 95 90 90 70 59 51 43 38 43 46 47 44 40 36 35 35 32 32 51 86 95 96 95 96 95 96 96 97 96 97 99 99 98 100 98 98 96 96 96 96 96 96 96 96 96 96 94 93 95 96 96 96
63 77 78 74 66 48 43 44 46 46 47 46 46 50 44 36 29 33 52 90 95 96 96 96 96 96 95 96 95 96 97 98 98 98 94 93 95 95 96 95 94 95 95 95 94 96 96 96 96 96 96 96 96 93
70 65 56 49 40 43 54 57 59 63 62 57 41 36 32 39 60 89 97 98 95 95 96 96 96 96 96 95 95 96 94 89 74 73 75 83 81 82 89 91 94 96 92 88 79 67 65 71 85 89 81 69 62 65
53 52 56 66 64 61 73 93 84 85 78 66 60 76 92 96 93 96 93 94 95 95 95 95 95 96 96 95 93 88 88 86 80 73 67 56 50 52 58 61 62 69 89 95 97 97 98 94 85 83 88 94 96 94
Wind_Speed
50 52 52 50 50 48 45 42 40 39 38 36 37 37 37 38 36 39 39 35 39 47 49 44 43 43 36 35 33 33 32 32 33 33 23 19 15 16 16 19 16 11 10 10 11 12 12 3 7 10 17 32 30 30
44 43 43 43 43 42 42 41 39 36 36 35 37 38 37 36 40 42 48 40 39 45 54 49 44 42 40 35 35 39 41 35 23 18 18 15 17 18 20 22 22 23 25 21 19 18 20 35 34 34 37 41 38 39
40 41 42 41 39 39 40 39 38 37 36 35 34 34 35 33 36 43 49 48 43 49 56 58 57 50 46 39 35 48 49 45 45 44 42 38 36 33 33 34 37 38 39 42 40 45 38 32 41 40 31 39 32 31
38 37 36 36 36 35 34 34 35 36 36 35 33 33 32 32 33 37 45 51 46 44 52 66 62 57 40 42 46 45 35 39 45 45 46 48 50 44 46 46 46 44 42 46 53 56 49 46 36 32 27 31 30 24
38 37 37 36 36 35 35 34 34 34 34 34 33 32 32 31 31 35 39 44 48 44 43 59 59 55 37 15 18 26 34 40 41 44 48 50 53 52 53 51 63 56 55 52 54 41 46 48 40 38 41 33 35 36
40 40 39 38 38 37 37 36 35 35 34 35 35 34 32 31 33 35 37 36 38 37 42 55 66 67 62 57 56 54 47 43 49 57 58 58 59 50 31 46 60 54 58 55 54 46 37 38 41 31 35 31 29 33
42 41 40 39 39 38 38 38 37 36 36 36 36 36 35 32 34 35 37 30 22 24 25 32 42 57 58 56 51 45 38 41 47 52 56 59 58 53 47 52 52 55 60 55 52 53 52 46 48 37 37 35 37 35
43 42 41 40 39 39 38 38 37 36 36 35 35 35 35 35 36 38 31 31 31 40 43 20 23 30 35 31 29 29 31 32 45 50 54 57 56 57 43 62 53 47 50 52 47 50 52 44 48 44 40 41 41 43
43 42 42 41 40 38 37 36 35 34 33 32 32 33 35 34 34 33 31 31 35 37 38 39 34 28 34 35 29 31 29 32 37 46 46 44 48 42 50 51 49 44 45 39 35 46 46 42 48 43 41 39 40 42
40 39 38 37 36 35 34 32 28 28 28 27 27 27 32 31 25 23 25 27 31 36 40 37 40 38 39 43 40 35 20 20 18 24 27 36 47 39 44 38 35 29 39 37 43 38 37 39 38 34 35 34 29 30
37 37 35 34 33 31 30 27 24 27 28 25 24 26 27 25 25 26 21 16 13 14 24 32 37 43 45 40 33 31 24 18 20 31 30 23 32 49 40 35 36 38 38 35 34 36 35 34 36 34 31 28 29 28
39 37 35 35 34 32 29 26 24 27 29 22 23 23 22 22 18 12 13 13 13 11 17 23 22 24 26 27 29 26 30 21 17 18 14 17 38 31 26 38 38 33 28 28 28 30 32 33 33 33 32 30 28 26
38 37 36 34 33 32 29 26 27 27 25 23 25 27 16 12 17 13 13 9 7 13 19 20 22 24 23 26 23 17 13 18 23 15 21 29 23 29 28 21 17 18 17 18 20 23 24 27 28 32 27 24 22 19
37 36 35 33 32 30 29 26 25 26 31 31 26 22 19 13 13 24 29 25 17 18 20 23 24 23 22 23 24 22 26 23 19 7 7 24 36 27 24 28 22 19 16 17 20 21 28 25 18 19 15 15 15 16
33 33 32 32 31 30 28 26 27 28 35 33 20 17 27 38 33 22 20 23 27 30 28 28 31 29 25 23 22 16 13 15 19 30 30 27 25 30 21 21 23 23 20 19 18 21 28 28 20 15 13 15 14 13
31 32 32 30 29 28 27 27 29 32 40 41 32 31 34 29 26 21 24 29 26 27 26 26 25 21 25 19 17 11 4 5 15 24 28 26 26 28 32 35 25 23 21 23 23 23 27 29 28 21 10 8 8 11
30 33 29 27 27 28 27 30 32 35 41 34 43 46 42 41 40 39 38 33 25 28 32 30 21 17 19 22 31 35 33 30 28 31 26 30 35 39 33 27 31 25 19 18 19 19 23 26 26 15 14 12 13 15
35 31 26 25 25 26 29 33 34 39 39 48 45 42 37 38 37 38 38 34 32 34 37 39 40 41 27 26 43 50 52 54 52 52 51 52 50 50 41 39 29 22 22 22 21 20 22 23 27 25 24 18 21 23
33 30 26 25 25 27 30 36 37 43 41 42 46 42 41 41 38 38 39 37 33 33 37 40 34 33 40 47 48 49 51 54 56 56 56 55 52 50 50 50 42 39 33 33 25 23 24 28 25 24 26 24 22 28
33 30 27 27 26 30 34 37 40 42 42 39 39 38 37 40 40 38 37 32 31 33 40 41 45 48 49 48 46 46 48 48 49 53 56 55 51 50 46 46 47 42 37 39 36 31 30 29 29 26 27 29 25 28
31 31 29 29 30 33 37 32 23 34 38 42 41 35 35 35 38 35 35 25 28 33 40 41 42 44 41 44 46 47 49 48 49 49 51 52 46 46 41 39 41 42 39 38 40 35 34 29 28 31 29 25 25 32
30 29 30 29 32 34 40 39 38 35 33 34 32 32 34 35 36 36 38 40 37 34 34 38 41 43 43 46 46 46 46 43 43 45 47 48 49 47 44 41 38 38 43 42 39 35 37 29 28 32 26 22 25 26
27 27 29 30 32 36 33 31 33 37 33 28 31 33 37 38 40 35 34 39 44 44 41 40 42 43 47 46 44 45 44 43 44 44 45 46 46 46 44 39 37 36 37 39 36 35 37 31 27 23 16 16 20 22
30 31 32 29 29 26 26 28 27 28 26 27 30 33 38 41 40 39 43 42 40 38 40 41 38 40 39 32 31 43 33 29 40 37 39 42 42 41 39 38 36 35 35 32 36 36 36 31 27 27 18 16 22 24
30 29 36 29 27 29 31 27 29 32 34 34 36 35 36 39 38 43 45 43 40 38 31 31 34 36 43 36 45 43 39 36 38 32 28 30 32 35 35 35 35 32 29 32 36 34 35 29 28 29 23 21 22 23
28 26 23 24 30 31 24 23 28 33 35 37 37 37 39 39 39 43 42 43 36 30 26 26 35 43 49 49 49 44 36 33 31 30 26 28 26 29 28 29 30 27 27 29 30 30 30 29 30 32 28 23 24 25
27 15 17 25 27 23 23 26 30 30 29 34 33 31 33 34 39 44 37 37 40 37 36 41 46 50 53 47 39 35 31 30 31 28 24 19 20 25 28 29 30 25 25 28 29 29 29 29 31 28 27 26 26 26
31 29 31 25 20 25 27 27 23 23 28 33 37 38 40 43 47 45 43 43 40 43 44 46 49 49 43 34 30 29 25 23 24 22 19 16 18 23 26 28 29 26 24 24 26 29 31 31 31 28 26 24 20 23
18 25 30 32 31 28 27 29 31 34 37 39 42 44 47 47 47 47 44 44 43 45 49 45 35 30 23 21 21 20 16 15 17 14 13 14 16 19 20 22 23 24 22 20 21 23 27 27 29 27 25 22 19 20
31 20 18 29 34 39 39 37 37 35 36 39 43 47 50 51 49 45 45 43 46 44 37 29 19 16 15 13 10 7 8 8 9 10 10 10 13 16 17 16 16 16 17 17 16 16 19 23 26 28 29 26 24 21
39 37 36 34 35 35 34 35 36 38 40 43 44 49 53 50 45 41 41 36 24 17 11 9 10 10 8 5 2 3 4 3 3 3 2 2 4 5 7 8 7 8 9 9 10 13 17 19 21 22 22 22 22 21
29 33 34 33 33 30 30 33 35 38 39 41 41 38 37 39 39 24 14 9 8 8 6 6 6 12 5 3 4 5 6 6 6 6 5 4 4 5 7 7 8 11 13 15 16 16 16 16 17 19 19 20 21 23
32 32 31 29 31 24 17 23 31 33 30 27 25 25 19 18 17 11 11 10 9 8 7 5 5 9 11 4 2 1 2 3 5 7 8 6 5 5 6 7 9 9 9 11 10 13 16 17 18 19 20 21 22 21
Wind_Direction
277 277 277 277 278 280 280 280 280 278 278 273 271 269 265 262 257 259 262 261 265 269 272 269 271 273 280 275 277 284 281 280 280 272 265 267 255 246 243 248 264 256 261 236 225 221 273 281 300 274 297 306 304 296
275 273 274 275 277 278 278 279 279 277 276 272 270 272 272 260 254 254 259 257 261 265 269 271 269 268 268 268 270 271 272 276 268 247 245 251 247 245 246 254 264 257 267 274 262 265 270 286 293 299 300 298 298 293
273 275 276 276 275 276 277 278 277 277 276 275 274 272 274 268 262 253 256 261 259 264 269 268 270 272 267 267 269 263 263 267 268 273 269 259 257 259 255 265 273 267 273 264 277 283 283 292 299 306 296 291 290 290
274 275 275 276 277 277 277 277 277 278 277 276 275 274 272 270 266 261 256 255 261 264 268 269 270 266 259 260 266 262 265 266 270 274 272 267 263 269 267 270 273 271 272 271 279 289 288 296 297 293 295 283 280 289
272 273 274 275 277 278 278 278 278 279 279 279 278 276 274 273 269 265 264 258 257 260 263 267 271 268 263 249 241 254 272 275 266 260 260 266 273 267 269 268 274 277 278 274 284 301 295 293 300 290 287 289 288 285
273 274 275 275 276 277 278 279 280 280 280 281 280 279 277 275 272 270 269 265 268 269 265 265 267 272 275 278 277 275 271 263 263 273 276 272 273 265 260 263 279 282 282 285 286 294 295 291 298 301 296 286 287 277
268 269 270 271 273 275 277 278 279 279 278 278 278 278 278 275 271 267 265 272 271 243 252 269 268 269 271 274 275 277 265 270 260 259 262 265 267 267 259 259 283 285 285 284 287 294 291 291 296 293 288 290 282 277
267 268 269 270 272 273 275 276 277 277 277 277 276 275 274 273 271 272 275 265 255 252 269 269 256 267 277 275 272 284 283 264 256 252 255 259 264 263 259 279 297 298 295 291 291 292 291 292 287 292 296 290 283 278
265 266 267 268 270 272 273 275 277 279 279 278 275 274 274 274 277 280 274 264 257 253 256 252 263 262 266 272 290 292 274 253 259 252 257 261 261 257 288 303 301 301 299 301 290 292 293 292 285 284 293 289 280 277
264 265 266 269 272 273 273 273 275 281 286 285 279 273 274 282 286 284 275 266 257 254 243 250 252 259 264 272 283 281 263 246 253 263 273 255 259 289 305 305 303 306 298 299 296 286 287 284 285 286 284 294 287 281
264 264 265 267 269 271 271 267 266 275 278 282 280 273 274 273 277 276 266 244 240 246 260 268 268 272 274 268 264 252 275 275 273 277 261 259 269 302 309 310 311 304 299 296 292 289 292 287 287 286 280 282 285 283
264 266 266 265 265 266 267 263 253 257 268 276 272 270 272 269 269 252 237 233 234 243 265 277 275 269 269 271 263 265 265 259 250 259 247 259 299 313 303 311 315 312 302 295 291 293 291 288 283 283 277 269 278 267
264 265 265 264 264 262 263 261 251 256 261 257 255 255 252 236 229 232 222 196 216 281 278 278 279 276 272 270 256 243 228 251 260 231 247 264 284 310 320 326 331 323 316 312 302 298 296 289 279 280 278 269 262 257
263 263 263 263 262 259 257 255 249 248 249 241 239 239 237 233 222 241 252 256 266 272 281 283 286 287 282 274 264 264 269 261 255 247 238 297 306 290 311 305 312 335 349 337 328 325 329 300 272 265 260 263 262 262
261 261 260 259 258 257 252 250 248 240 243 229 222 228 241 248 246 254 260 268 271 283 283 289 289 290 287 274 263 254 246 246 259 265 281 295 275 274 280 316 324 335 314 315 324 325 335 327 290 256 260 262 263 266
258 258 257 256 254 254 249 247 247 240 250 232 228 233 243 246 251 251 255 261 268 272 276 281 285 281 276 266 261 253 223 259 261 266 269 273 274 287 292 291 306 321 336 340 313 325 331 333 327 301 242 242 245 235
256 254 255 254 251 249 245 242 246 245 253 228 234 240 248 255 262 270 270 264 264 273 275 279 266 255 260 264 274 281 283 287 288 285 274 280 299 302 290 295 286 292 317 320 319 317 317 328 313 328 287 238 225 232
254 255 254 251 249 248 242 239 243 251 240 238 242 251 255 264 266 270 273 276 279 269 268 269 273 268 262 270 278 286 287 291 295 298 294 294 296 295 295 306 300 300 293 305 312 305 305 307 314 310 336 294 243 231
252 252 251 251 244 247 248 248 244 248 253 254 255 254 257 263 269 276 279 282 281 273 273 269 269 269 276 280 284 288 291 295 298 298 298 298 294 290 283 286 288 291 291 292 296 304 297 295 297 304 310 314 275 243
245 246 246 243 239 242 247 250 248 252 250 256 262 265 266 268 275 279 281 277 275 273 271 266 266 271 277 283 287 289 288 288 289 290 290 292 292 291 288 285 281 280 282 278 285 296 295 295 286 287 298 308 279 247
239 239 241 240 238 238 241 242 241 248 247 250 259 267 264 269 274 278 276 277 281 275 272 273 278 284 284 286 288 288 286 283 282 280 280 281 281 282 281 274 276 279 275 277 274 284 287 289 290 279 285 296 270 250
234 234 237 235 238 241 244 247 246 254 256 258 260 267 270 274 280 283 286 281 276 279 288 292 288 289 289 290 294 295 288 284 281 279 270 269 271 275 275 271 268 270 268 270 270 277 284 282 284 279 286 279 267 247
231 233 235 236 238 242 247 253 255 250 230 239 253 262 268 276 283 289 278 277 283 289 293 292 293 296 299 298 293 286 285 283 279 275 273 269 267 268 268 268 265 266 264 262 261 270 274 272 275 269 261 272 261 236
226 230 231 233 235 241 242 232 224 228 243 255 263 273 278 284 289 285 283 289 294 296 296 302 302 294 290 291 303 314 305 310 309 293 272 267 265 266 267 270 270 267 256 247 251 258 258 260 261 256 257 267 257 231
222 232 227 225 235 236 240 239 242 255 254 268 273 275 279 288 283 286 290 297 303 304 307 297 295 309 313 304 307 309 307 309 307 300 271 268 272 266 263 263 263 257 249 243 246 245 247 253 250 243 244 256 263 230
225 232 220 228 230 231 239 241 248 259 263 261 264 274 285 286 286 281 295 309 309 318 301 299 305 307 306 305 305 305 300 300 294 288 287 295 271 259 260 257 256 254 250 246 246 248 251 242 242 238 241 246 246 223
225 221 216 229 233 242 239 251 254 253 255 267 273 280 283 272 274 290 305 308 309 310 300 294 300 303 300 301 297 293 292 289 279 275 277 272 256 249 249 250 251 249 243 241 243 242 241 238 236 234 231 238 235 216
226 232 231 232 239 246 247 252 246 254 261 266 274 271 268 275 288 305 306 307 308 307 306 302 299 299 297 292 288 278 279 285 284 276 273 270 259 256 257 257 255 253 248 245 242 237 236 232 225 223 226 220 211 208
222 227 237 237 240 242 247 248 253 263 274 280 281 282 288 295 298 300 304 305 305 304 300 300 298 295 289 279 270 271 280 287 285 278 274 263 250 253 256 252 246 245 246 245 243 241 238 237 225 221 216 207 210 214
238 237 238 241 242 247 251 266 274 283 285 286 289 291 291 291 296 301 300 302 302 300 299 296 286 275 272 260 254 265 280 298 292 264 269 259 239 230 233 237 237 233 228 226 227 224 221 219 217 215 209 211 221 232
232 237 245 252 254 261 270 275 280 282 284 286 287 288 290 295 294 295 295 298 291 292 305 284 260 238 223 181 101 36 43 53 36 45 92 191 203 202 187 182 188 198 199 204 216 221 220 219 218 218 221 225 224 218
236 242 249 255 263 274 281 285 289 288 288 285 284 286 290 294 296 307 332 326 276 266 279 283 260 206 171 132 92 51 56 37 27 29 15 357 324 274 257 248 233 225 225 221 217 214 212 207 202 200 202 205 207 212
248 253 257 261 273 277 290 299 303 309 305 297 294 288 287 296 312 336 331 308 286 280 284 281 256 228 216 205 131 30 314 302 317 319 321 326 307 289 266 244 232 222 218 216 209 201 204 207 207 208 208 205 199 190